Weather History for Lydd, United Kingdom

Change the Weather History Date:

Sunday, October 7, 2012

  Actual Average (EGMC) Record (EGMC)
Temperature  
Mean Temperature 50 °F -  
Max Temperature 59 °F 60 °F 66 °F (2013)
Min Temperature 42 °F 49 °F 39 °F (2012)
Degree Days  
Heating Degree Days 14    
Moisture  
Dew Point 47 °F    
Average Humidity 79    
Maximum Humidity 100    
Minimum Humidity 63    
Precipitation  
Precipitation 0.00 in - - ()
Sea Level Pressure  
Sea Level Pressure 30.19 in    
Wind  
Wind Speed 6 mph ()    
Max Wind Speed 10 mph    
Max Gust Speed -    
Visibility 6.2 miles    
Events      
Averages and records for this station are not official NWS values.
T = Trace of Precipitation, MM = Missing Value Source: Averaged Metar Reports

Daily Weather History Graph

Daily Weather History Graph

Search for Another Location

Airport:

Trip Planner

Search our weather history database for the weather conditions in past years. The results will help you decide how hot, cold, wet, or windy it might be!

Date:

Astronomy

Oct. 07, 2012 Rise Set
Actual Time 7:06 AM BST 6:20 PM BST
Civil Twilight 6:33 AM BST 6:53 PM BST
Nautical Twilight 5:55 AM BST 7:31 PM BST
Astronomical Twilight 5:16 AM BST 8:09 PM BST
Moon 10:50 PM BST (10/7) 2:01 PM BST (10/7)
Length of Visible Light 12h 19m
Length of Day
11h 13m
Waning Gibbous, 58% of the Moon is Illuminated
Oct 7
Waning Gibbous
Oct 8
Last Quarter
Oct 15
New
Oct 22
First Quarter
Oct 29
Full

Hourly Weather History & Observations

Time (BST) Temp. Windchill Dew Point Humidity Pressure Visibility Wind Dir Wind Speed Gust Speed Precip Events Conditions
8:20 AM 42.8 °F 38.6 °F 41.0 °F 93% 30.12 in - NW 6.9 mph - N/A   Clear
8:50 AM 44.6 °F 40.2 °F 44.6 °F 100% 30.15 in - NW 8.1 mph - N/A   Clear
9:20 AM 46.4 °F 41.5 °F 46.4 °F 100% 30.15 in - NW 10.4 mph - N/A   Clear
9:50 AM 48.2 °F - 46.4 °F 93% 30.15 in 6.2 mi NNW 6.9 mph - N/A   Partly Cloudy
10:20 AM 50.0 °F - 48.2 °F 94% 30.18 in - NW 6.9 mph - N/A   Clear
10:50 AM 51.8 °F - 50.0 °F 94% 30.18 in - NW 6.9 mph - N/A   Clear
11:20 AM 53.6 °F - 50.0 °F 88% 30.18 in - NW 5.8 mph - N/A   Clear
11:50 AM 55.4 °F - 51.8 °F 88% 30.21 in 6.2 mi NNW 6.9 mph - N/A   Partly Cloudy
12:20 PM 57.2 °F - 50.0 °F 77% 30.21 in 6.2 mi NNW 4.6 mph - N/A   Partly Cloudy
12:50 PM 59.0 °F - 48.2 °F 67% 30.21 in 6.2 mi Variable 2.3 mph - N/A   Partly Cloudy
1:20 PM 59.0 °F - 48.2 °F 67% 30.21 in 6.2 mi Variable 2.3 mph - N/A   Partly Cloudy
1:50 PM 57.2 °F - 48.2 °F 72% 30.21 in 6.2 mi ESE 4.6 mph - N/A   Partly Cloudy
2:20 PM 59.0 °F - 46.4 °F 63% 30.21 in 6.2 mi SSE 3.5 mph - N/A   Partly Cloudy
2:50 PM 57.2 °F - 46.4 °F 67% 30.21 in 6.2 mi ESE 5.8 mph - N/A   Partly Cloudy
3:20 PM 57.2 °F - 44.6 °F 63% 30.21 in 6.2 mi SE 6.9 mph - N/A   Partly Cloudy
3:50 PM 59.0 °F - 46.4 °F 63% 30.21 in 6.2 mi ESE 5.8 mph - N/A   Partly Cloudy
4:20 PM 59.0 °F - 46.4 °F 63% 30.21 in 6.2 mi ESE 5.8 mph - N/A   Partly Cloudy
4:50 PM 57.2 °F - 46.4 °F 67% 30.21 in - ESE 5.8 mph - N/A   Clear
5:20 PM 55.4 °F - 46.4 °F 72% 30.21 in - ESE 6.9 mph - N/A   Clear
5:50 PM 55.4 °F - 46.4 °F 72% 30.21 in - ESE 5.8 mph - N/A   Clear
6:20 PM 53.6 °F - 48.2 °F 82% 30.21 in - ESE 6.9 mph - N/A   Clear
6:50 PM 51.8 °F - 48.2 °F 88% 30.21 in - ESE 4.6 mph - N/A   Clear